Grand Island, NE

9:16 PM CDT on April 26, 2017 (GMT -0500)
Central Nebraska Regional

Weather History for KGRI - December, 2012

Change the Weather History Date:

Friday, December 7, 2012

  Actual Average Record
Temperature  
Mean Temperature 34 °F 28 °F  
Max Temperature 46 °F 39 °F 65 °F (1984)
Min Temperature 22 °F 18 °F -15 °F (1927)
Degree Days  
Heating Degree Days 31 37  
Month to date heating degree days 142 250  
Since 1 July heating degree days 1342 1580  
Cooling Degree Days 0 0  
Month to date cooling degree days 0 0  
Year to date cooling degree days 1507 1034  
Moisture  
Dew Point 25 °F    
Average Humidity 71    
Maximum Humidity 92    
Minimum Humidity 49    
Precipitation  
Precipitation T in 0.02 in 0.40 in (1919)
Month to date precipitation T 0.17  
Year to date precipitation 9.89 26.20  
Snow  
Snow 0.00 in 0.10 in 5.00 in (1919)
Month to date snowfall 0.0 1.0  
Since 1 July snowfall 0.3 5.2  
Snow Depth 0.00 in    
Sea Level Pressure  
Sea Level Pressure 29.97 in    
Wind  
Wind Speed 6 mph (NW)    
Max Wind Speed 16 mph    
Max Gust Speed 21 mph    
Visibility 10 miles    
Events Rain    
T = Trace of Precipitation, MM = Missing Value Source: NWS Daily Summary

Daily Weather History Graph

Daily Weather History Graph

Search for Another Location

Airport or City:

Trip Planner

Search our weather history database for the weather conditions in past years. The results will help you decide how hot, cold, wet, or windy it might be!

Date:

Astronomy

Dec. 07, 2012 Rise Set
Actual Time 7:44 AM CST 5:04 PM CST
Civil Twilight 7:14 AM CST 5:35 PM CST
Nautical Twilight 6:39 AM CST 6:10 PM CST
Astronomical Twilight 6:06 AM CST 6:43 PM CST
Moon 1:03 AM CST (12/7) 1:04 PM CST (12/7)
Length of Visible Light 10h 21m
Length of Day
9h 19m
Last Quarter, 38% of the Moon is Illuminated
Dec 7
Last Quarter
Dec 13
New
Dec 19
First Quarter
Dec 28
Full
Jan 4
Last Quarter

Hourly Weather History & Observations

Time (CST) Temp. Windchill Dew Point Humidity Pressure Visibility Wind Dir Wind Speed Gust Speed Precip Events Conditions
12:53 AM 36.0 °F 33.3 °F 25.0 °F 64% 30.02 in 10.0 mi NNE 3.5 mph - N/A   Mostly Cloudy
1:53 AM 30.0 °F 26.5 °F 23.0 °F 75% 30.01 in 10.0 mi NNE 3.5 mph - N/A   Mostly Cloudy
2:53 AM 27.0 °F - 19.9 °F 75% 30.01 in 10.0 mi Calm Calm - N/A   Clear
3:53 AM 26.1 °F 21.9 °F 19.9 °F 78% 29.98 in 10.0 mi North 3.5 mph - N/A   Clear
4:53 AM 26.1 °F - 21.0 °F 81% 29.97 in 10.0 mi Calm Calm - N/A   Clear
5:53 AM 23.0 °F 18.4 °F 18.0 °F 81% 29.98 in 10.0 mi WNW 3.5 mph - N/A   Clear
6:53 AM 24.1 °F 19.7 °F 19.0 °F 81% 29.99 in 10.0 mi WSW 3.5 mph - N/A   Clear
7:53 AM 24.1 °F - 19.9 °F 84% 29.97 in 10.0 mi Calm Calm - N/A   Clear
8:53 AM 28.9 °F 23.9 °F 24.1 °F 82% 29.97 in 10.0 mi West 4.6 mph - N/A   Clear
9:53 AM 36.0 °F 32.1 °F 26.1 °F 67% 29.97 in 10.0 mi SSW 4.6 mph - N/A   Mostly Cloudy
10:53 AM 39.9 °F 34.5 °F 28.0 °F 63% 29.96 in 10.0 mi South 8.1 mph - N/A   Mostly Cloudy
11:53 AM 41.0 °F 37.1 °F 28.0 °F 60% 29.95 in 10.0 mi South 5.8 mph - N/A   Overcast
12:53 PM 39.0 °F 34.8 °F 30.9 °F 73% 29.94 in 10.0 mi SE 5.8 mph - 0.00 in Rain Light Rain
1:53 PM 42.1 °F 36.6 °F 33.1 °F 70% 29.91 in 10.0 mi South 9.2 mph - 0.00 in   Mostly Cloudy
2:53 PM 44.1 °F 39.0 °F 28.0 °F 53% 29.89 in 10.0 mi SW 9.2 mph - N/A   Overcast
3:53 PM 45.0 °F 42.6 °F 27.0 °F 49% 29.90 in 10.0 mi SSW 4.6 mph - N/A   Clear
4:53 PM 41.0 °F 39.0 °F 27.0 °F 57% 29.91 in 10.0 mi NW 3.5 mph - N/A   Clear
5:53 PM 34.0 °F 29.8 °F 23.0 °F 64% 29.95 in 10.0 mi WNW 4.6 mph - N/A   Clear
6:53 PM 39.9 °F 32.5 °F 25.0 °F 55% 29.95 in 10.0 mi NW 12.7 mph - N/A   Clear
7:53 PM 39.0 °F 30.6 °F 25.0 °F 57% 29.98 in 10.0 mi NW 15.0 mph - N/A   Clear
8:53 PM 37.0 °F 28.5 °F 25.0 °F 62% 29.99 in 10.0 mi NW 13.8 mph - N/A   Clear
9:53 PM 34.0 °F 26.0 °F 26.1 °F 73% 30.03 in 10.0 mi NNW 10.4 mph - N/A   Clear
10:32 PM 30.2 °F 19.8 °F 28.4 °F 93% 29.99 in 9.0 mi North 13.8 mph - N/A   Scattered Clouds
10:41 PM 30.2 °F 19.8 °F 28.4 °F 93% 30.00 in 9.0 mi North 13.8 mph - N/A   Mostly Cloudy
10:53 PM 30.9 °F 21.7 °F 28.9 °F 92% 30.03 in 9.0 mi North 11.5 mph - N/A   Overcast
11:53 PM 28.9 °F 21.9 °F 27.0 °F 92% 30.04 in 9.0 mi North 6.9 mph - N/A   Overcast